Location: Unspecified
(35.6961°N, 0.0000°E)
Time: 10:29:45
(UTC+00:00)

Explorer 11/Cluster Stage 4 - Pass Details

Date: 26 May 2019
Orbit: 467 x 1260 km, 28.8° (Epoch: 15 June)

Event Time Altitude Azimuth Distance (km) Brightness Sun altitude
Rises 01:14:22 0° 228° (SW) 3,779 - -30.4°
Reaches altitude 10° 01:17:49 10° 215° (SW) 2,681 - -30.1°
Maximum altitude 01:22:47 24° 165° (SSE) 1,675 - -29.7°
Drops below altitude 10° 01:27:01 10° 112° (ESE) 2,237 - -29.4°
Exits shadow 01:27:26 - 109° (ESE) 2,352 9.1 -29.3°
Sets 01:29:37 0° 98° (E) 3,025 9.8 -29.2°
